�������l�o���
Date,Time,MP-1(��Sv/h),MP-2(��Sv/h),MP-3(��Sv/h),MP-4(��Sv/h),MP-5(��Sv/h),MP-6(��Sv/h),MP-7(��Sv/h),MP-8(��Sv/h),����,����(m/s),���J
2023/11/08,00:00,0.515,0.773,0.484,0.978,0.701,0.315,0.564,0.530,���k��,6.7,��
2023/11/08,00:10,0.515,0.773,0.483,0.976,0.701,0.314,0.564,0.529,���k��,6.2,��
2023/11/08,00:20,0.514,0.773,0.484,0.977,0.700,0.315,0.564,0.529,���k��,6.7,��
2023/11/08,00:30,0.514,0.773,0.483,0.976,0.700,0.314,0.565,0.529,���k��,5.7,��
2023/11/08,00:40,0.514,0.772,0.482,0.975,0.701,0.314,0.564,0.529,�k��,6.6,��
2023/11/08,00:50,0.514,0.772,0.484,0.978,0.701,0.314,0.564,0.528,�k��,3.7,��
2023/11/08,01:00,0.514,0.772,0.483,0.975,0.699,0.314,0.565,0.530,�k�k��,3.4,��
2023/11/08,01:10,0.516,0.774,0.484,0.975,0.702,0.315,0.564,0.527,�k,2.9,��
2023/11/08,01:20,0.514,0.774,0.483,0.976,0.701,0.314,0.565,0.528,�k�k��,6.2,��
2023/11/08,01:30,0.513,0.773,0.482,0.975,0.702,0.313,0.566,0.530,�k�k��,6.7,��
2023/11/08,01:40,0.514,0.772,0.482,0.975,0.700,0.314,0.565,0.528,�k�k��,5.2,��
2023/11/08,01:50,0.516,0.773,0.484,0.975,0.701,0.313,0.564,0.528,�k�k��,4.1,��
2023/11/08,02:00,0.514,0.772,0.482,0.977,0.699,0.315,0.565,0.526,�k�k��,4.2,��
2023/11/08,02:10,0.516,0.772,0.484,0.974,0.700,0.315,0.565,0.527,�k��,3.8,��
2023/11/08,02:20,0.513,0.773,0.484,0.977,0.702,0.314,0.565,0.528,�k��,3.5,��
2023/11/08,02:30,0.514,0.773,0.483,0.979,0.703,0.314,0.565,0.526,�k��,4.5,��
2023/11/08,02:40,0.513,0.772,0.482,0.977,0.703,0.314,0.564,0.527,�k��,5.3,��
2023/11/08,02:50,0.515,0.775,0.482,0.976,0.700,0.313,0.565,0.526,�k��,5.0,��
2023/11/08,03:00,0.515,0.773,0.482,0.975,0.699,0.314,0.564,0.527,�k��,4.6,��
2023/11/08,03:10,0.513,0.773,0.482,0.977,0.699,0.313,0.565,0.526,�k��,5.0,��
2023/11/08,03:20,0.516,0.773,0.482,0.976,0.699,0.313,0.566,0.527,�k��,5.0,��
2023/11/08,03:30,0.514,0.773,0.482,0.975,0.703,0.316,0.566,0.526,�k��,4.9,��
2023/11/08,03:40,0.513,0.772,0.482,0.975,0.701,0.314,0.567,0.526,�k��,5.2,��
2023/11/08,03:50,0.515,0.773,0.481,0.976,0.701,0.315,0.566,0.527,�k��,5.0,��
2023/11/08,04:00,0.514,0.773,0.483,0.976,0.701,0.313,0.566,0.528,�k��,5.6,��
2023/11/08,04:10,0.513,0.773,0.482,0.976,0.700,0.314,0.566,0.526,�k��,4.4,��
2023/11/08,04:20,0.515,0.773,0.483,0.978,0.701,0.314,0.565,0.526,�k��,4.7,��
2023/11/08,04:30,0.514,0.774,0.481,0.978,0.699,0.313,0.565,0.526,�k��,5.3,��
2023/11/08,04:40,0.514,0.773,0.482,0.975,0.700,0.313,0.564,0.525,�k��,5.5,��
2023/11/08,04:50,0.513,0.772,0.481,0.976,0.700,0.314,0.565,0.525,�k��,5.1,��
2023/11/08,05:00,0.514,0.773,0.483,0.977,0.700,0.314,0.566,0.527,�k��,5.6,��
2023/11/08,05:10,0.513,0.771,0.482,0.975,0.701,0.312,0.564,0.524,�k��,4.9,��
2023/11/08,05:20,0.514,0.773,0.481,0.978,0.700,0.313,0.565,0.526,�k��,5.3,��
2023/11/08,05:30,0.514,0.773,0.482,0.976,0.701,0.313,0.565,0.526,���k��,6.4,��
2023/11/08,05:40,0.513,0.771,0.482,0.977,0.699,0.312,0.566,0.524,�k��,5.1,��
2023/11/08,05:50,0.514,0.773,0.480,0.976,0.701,0.313,0.566,0.526,�k��,4.0,��
2023/11/08,06:00,0.515,0.772,0.482,0.978,0.699,0.313,0.566,0.525,���k��,4.3,��
2023/11/08,06:10,0.513,0.772,0.483,0.976,0.700,0.312,0.565,0.525,���k��,4.4,��
2023/11/08,06:20,0.514,0.770,0.482,0.978,0.701,0.314,0.565,0.524,���k��,4.5,��
2023/11/08,06:30,0.515,0.771,0.480,0.977,0.698,0.312,0.565,0.525,���k��,4.2,��
2023/11/08,06:40,0.513,0.773,0.481,0.975,0.701,0.313,0.565,0.526,���k��,4.2,��
2023/11/08,06:50,0.514,0.773,0.482,0.976,0.700,0.313,0.567,0.526,���k��,4.3,��
2023/11/08,07:00,0.513,0.773,0.481,0.973,0.700,0.312,0.566,0.526,���k��,4.5,��
2023/11/08,07:10,0.513,0.773,0.481,0.976,0.700,0.312,0.565,0.525,���k��,4.9,��
2023/11/08,07:20,0.512,0.773,0.480,0.977,0.701,0.312,0.567,0.524,���k��,5.0,��
2023/11/08,07:30,0.513,0.773,0.482,0.978,0.700,0.313,0.565,0.525,�k��,4.8,��
2023/11/08,07:40,0.513,0.775,0.482,0.975,0.699,0.312,0.566,0.524,�k��,3.9,��
2023/11/08,07:50,0.513,0.774,0.481,0.976,0.701,0.311,0.567,0.525,�k��,2.9,��
2023/11/08,08:00,0.514,0.772,0.480,0.978,0.699,0.311,0.566,0.526,�k��,0.9,��
2023/11/08,08:10,0.514,0.774,0.481,0.975,0.699,0.311,0.568,0.525,�k��,1.7,��
2023/11/08,08:20,0.514,0.775,0.480,0.977,0.700,0.312,0.567,0.527,�k�k��,2.0,��
2023/11/08,08:30,0.516,0.773,0.481,0.975,0.699,0.311,0.568,0.526,�k,2.3,��
2023/11/08,08:40,0.514,0.769,0.482,0.976,0.701,0.312,0.566,0.525,�k,2.3,��
2023/11/08,08:50,0.515,0.772,0.481,0.977,0.699,0.312,0.565,0.525,�k�k��,2.0,��
2023/11/08,09:00,0.513,0.771,0.481,0.977,0.700,0.312,0.566,0.525,�k��,3.4,��
2023/11/08,09:10,0.513,0.771,0.481,0.976,0.700,0.311,0.566,0.526,�k��,3.3,��
2023/11/08,09:20,0.512,0.772,0.483,0.979,0.701,0.313,0.565,0.526,�k�k��,3.7,��
2023/11/08,09:30,0.513,0.772,0.483,0.976,0.700,0.316,0.565,0.526,�k��,4.8,��
2023/11/08,09:40,0.513,0.772,0.482,0.977,0.701,0.312,0.566,0.526,�k��,5.2,��
2023/11/08,09:50,0.514,0.772,0.483,0.978,0.701,0.313,0.566,0.525,���k��,3.7,��
2023/11/08,10:00,0.512,0.772,0.481,0.978,0.701,0.311,0.565,0.526,���k��,3.3,��
2023/11/08,10:10,0.513,0.772,0.483,0.979,0.701,0.312,0.564,0.527,�k�k��,5.0,��
2023/11/08,10:20,0.513,0.774,0.482,0.979,0.699,0.311,0.565,0.527,�k�k��,5.8,��
2023/11/08,10:30,0.513,0.774,0.481,0.978,0.700,0.311,0.566,0.525,�k��,4.5,��
2023/11/08,10:40,0.514,0.773,0.481,0.979,0.700,0.311,0.565,0.526,���k��,3.6,��
2023/11/08,10:50,0.515,0.773,0.482,0.978,0.701,0.311,0.566,0.525,�k�k��,3.7,��
2023/11/08,11:00,0.515,0.776,0.482,0.979,0.703,0.313,0.565,0.525,�k�k��,6.1,��
2023/11/08,11:10,0.514,0.773,0.482,0.980,0.700,0.311,0.565,0.526,�k,5.0,��
2023/11/08,11:20,0.515,0.774,0.482,0.978,0.700,0.312,0.565,0.525,�k��,3.7,��
2023/11/08,11:30,0.516,0.775,0.482,0.979,0.701,0.311,0.566,0.526,�k�k��,6.1,��
2023/11/08,11:40,0.514,0.774,0.481,0.978,0.702,0.312,0.566,0.527,�k�k��,5.5,��
2023/11/08,11:50,0.515,0.774,0.482,0.978,0.703,0.311,0.564,0.527,�k�k��,6.9,��
2023/11/08,12:00,0.515,0.776,0.484,0.979,0.701,0.312,0.564,0.528,�k�k��,6.3,��
2023/11/08,12:10,0.515,0.775,0.484,0.979,0.701,0.313,0.564,0.526,�k,6.6,��
2023/11/08,12:20,0.516,0.777,0.483,0.980,0.702,0.312,0.566,0.525,�k,4.5,��
2023/11/08,12:30,0.515,0.778,0.483,0.980,0.703,0.312,0.565,0.525,�k�k��,5.5,��
2023/11/08,12:40,0.515,0.777,0.483,0.981,0.704,0.313,0.563,0.525,�k�k��,5.7,��
2023/11/08,12:50,0.515,0.779,0.484,0.980,0.705,0.313,0.565,0.525,�k,5.0,��
2023/11/08,13:00,0.516,0.777,0.485,0.981,0.703,0.313,0.563,0.525,�k�k��,4.4,��
2023/11/08,13:10,0.517,0.777,0.484,0.980,0.703,0.312,0.564,0.526,�k�k��,3.8,��
2023/11/08,13:20,0.516,0.777,0.487,0.981,0.705,0.312,0.564,0.524,�k,3.7,��
2023/11/08,13:30,0.516,0.776,0.484,0.980,0.704,0.312,0.564,0.525,�k,4.4,��
2023/11/08,13:40,0.514,0.776,0.485,0.981,0.704,0.311,0.564,0.525,�k,3.1,��
2023/11/08,13:50,0.517,0.777,0.485,0.982,0.704,0.312,0.564,0.526,�k�k��,4.6,��
2023/11/08,14:00,0.515,0.778,0.484,0.980,0.705,0.312,0.564,0.525,�k�k��,5.4,��
2023/11/08,14:10,0.515,0.779,0.485,0.981,0.703,0.312,0.563,0.525,�k�k��,6.5,��
2023/11/08,14:20,0.515,0.778,0.485,0.980,0.705,0.313,0.562,0.525,�k�k��,6.0,��
2023/11/08,14:30,0.516,0.777,0.485,0.983,0.703,0.312,0.563,0.526,�k�k��,6.6,��
2023/11/08,14:40,0.515,0.776,0.484,0.982,0.703,0.311,0.564,0.526,�k�k��,6.6,��
2023/11/08,14:50,0.515,0.779,0.484,0.981,0.704,0.311,0.563,0.524,�k�k��,6.0,��
2023/11/08,15:00,0.514,0.778,0.484,0.982,0.705,0.313,0.563,0.525,�k�k��,6.5,��
2023/11/08,15:10,0.517,0.777,0.485,0.980,0.706,0.312,0.562,0.524,�k�k��,6.5,��
2023/11/08,15:20,0.514,0.777,0.483,0.980,0.704,0.313,0.562,0.525,�k�k��,5.5,��
2023/11/08,15:30,0.515,0.778,0.483,0.979,0.704,0.314,0.563,0.525,�k�k��,5.7,��
2023/11/08,15:40,0.516,0.779,0.483,0.978,0.705,0.314,0.564,0.525,�k�k��,6.1,��
2023/11/08,15:50,0.515,0.778,0.483,0.979,0.704,0.314,0.564,0.525,�k��,6.1,��
2023/11/08,16:00,0.516,0.778,0.483,0.980,0.706,0.313,0.564,0.525,�k�k��,6.1,��
2023/11/08,16:10,0.515,0.777,0.484,0.975,0.704,0.314,0.565,0.527,�k�k��,5.9,��
2023/11/08,16:20,0.515,0.780,0.484,0.980,0.705,0.314,0.564,0.528,�k�k��,5.7,��
2023/11/08,16:30,0.515,0.781,0.485,0.980,0.703,0.314,0.566,0.527,�k��,4.8,��
2023/11/08,16:40,0.515,0.781,0.485,0.980,0.705,0.313,0.564,0.528,�k,4.5,��
2023/11/08,16:50,0.513,0.782,0.486,0.982,0.705,0.315,0.564,0.526,�k�k��,5.5,��
2023/11/08,17:00,0.516,0.781,0.487,0.980,0.706,0.315,0.564,0.529,�k�k��,4.9,��
2023/11/08,17:10,0.516,0.781,0.487,0.982,0.706,0.313,0.566,0.526,�k�k��,4.7,��
2023/11/08,17:20,0.519,0.780,0.485,0.979,0.708,0.315,0.565,0.527,�k�k��,4.3,��
2023/11/08,17:30,0.516,0.783,0.487,0.981,0.708,0.313,0.564,0.525,�k�k��,5.1,��
2023/11/08,17:40,0.518,0.782,0.486,0.982,0.707,0.314,0.566,0.527,�k�k��,4.6,��
2023/11/08,17:50,0.518,0.783,0.484,0.982,0.707,0.314,0.566,0.525,�k�k��,2.8,��
2023/11/08,18:00,0.517,0.780,0.486,0.982,0.706,0.314,0.566,0.528,�k�k��,2.5,��
2023/11/08,18:10,0.517,0.781,0.484,0.981,0.708,0.314,0.565,0.526,�k�k��,2.5,��
2023/11/08,18:20,0.518,0.780,0.487,0.982,0.708,0.314,0.566,0.527,�k�k��,2.3,��
2023/11/08,18:30,0.519,0.781,0.485,0.982,0.708,0.313,0.565,0.525,�k��,2.8,��
2023/11/08,18:40,0.518,0.782,0.486,0.982,0.709,0.314,0.565,0.527,�k�k��,2.2,��
2023/11/08,18:50,0.519,0.780,0.486,0.981,0.708,0.314,0.564,0.527,�k��,2.3,��
2023/11/08,19:00,0.518,0.783,0.485,0.982,0.708,0.314,0.564,0.525,�k�k��,2.9,��
2023/11/08,19:10,0.517,0.780,0.486,0.981,0.709,0.313,0.565,0.525,�k�k��,3.0,��
2023/11/08,19:20,0.519,0.781,0.487,0.982,0.707,0.314,0.566,0.526,�k�k��,3.3,��
2023/11/08,19:30,0.518,0.780,0.487,0.981,0.708,0.314,0.566,0.525,�k�k��,3.9,��
2023/11/08,19:40,0.519,0.781,0.486,0.982,0.709,0.313,0.565,0.526,�k�k��,3.7,��
2023/11/08,19:50,0.517,0.781,0.487,0.982,0.706,0.314,0.565,0.526,�k�k��,4.1,��
2023/11/08,20:00,0.519,0.782,0.485,0.982,0.706,0.312,0.564,0.525,�k�k��,4.9,��
2023/11/08,20:10,0.519,0.782,0.486,0.983,0.708,0.314,0.565,0.526,�k�k��,4.8,��
2023/11/08,20:20,0.518,0.781,0.486,0.980,0.709,0.313,0.566,0.525,�k,5.2,��
2023/11/08,20:30,0.517,0.781,0.486,0.982,0.707,0.313,0.565,0.526,�k�k��,6.0,��
2023/11/08,20:40,0.516,0.781,0.485,0.983,0.707,0.313,0.566,0.525,�k�k��,4.9,��
2023/11/08,20:50,0.517,0.781,0.486,0.983,0.708,0.314,0.567,0.526,�k�k��,5.5,��
2023/11/08,21:00,0.517,0.779,0.486,0.981,0.707,0.314,0.566,0.526,�k�k��,5.3,��
2023/11/08,21:10,0.518,0.780,0.483,0.982,0.707,0.313,0.568,0.527,�k�k��,5.6,��
2023/11/08,21:20,0.517,0.780,0.484,0.981,0.708,0.314,0.565,0.525,�k��,6.1,��
2023/11/08,21:30,0.518,0.781,0.484,0.981,0.707,0.315,0.566,0.527,�k�k��,5.2,��
2023/11/08,21:40,0.516,0.782,0.485,0.981,0.707,0.314,0.566,0.524,�k�k��,6.1,��
2023/11/08,21:50,0.516,0.780,0.485,0.982,0.707,0.312,0.566,0.526,�k�k��,6.3,��
2023/11/08,22:00,0.517,0.780,0.485,0.983,0.707,0.312,0.565,0.524,�k�k��,5.7,��
2023/11/08,22:10,0.517,0.781,0.485,0.982,0.705,0.313,0.568,0.526,�k�k��,5.4,��
2023/11/08,22:20,0.518,0.780,0.485,0.983,0.705,0.314,0.567,0.526,�k��,6.4,��
2023/11/08,22:30,0.516,0.782,0.485,0.982,0.707,0.313,0.567,0.525,�k��,6.2,��
2023/11/08,22:40,0.516,0.781,0.484,0.982,0.708,0.314,0.567,0.524,�k��,6.3,��
2023/11/08,22:50,0.517,0.781,0.485,0.982,0.708,0.314,0.568,0.525,�k��,5.7,��
2023/11/08,23:00,0.517,0.779,0.483,0.985,0.708,0.313,0.567,0.526,�k��,6.1,��
2023/11/08,23:10,0.516,0.780,0.484,0.982,0.705,0.312,0.568,0.527,�k��,6.4,��
2023/11/08,23:20,0.518,0.780,0.485,0.983,0.707,0.314,0.567,0.524,�k�k��,6.1,��
2023/11/08,23:30,0.516,0.780,0.485,0.982,0.705,0.314,0.568,0.526,�k��,6.8,��
2023/11/08,23:40,0.518,0.778,0.485,0.984,0.708,0.313,0.567,0.526,�k��,6.1,��
2023/11/08,23:50,0.518,0.778,0.486,0.985,0.707,0.313,0.567,0.525,�k��,6.0,��
